TimeEST,TemperatureF,Dew PointF,Humidity,Sea Level PressureIn,VisibilityMPH,Wind Direction,Wind SpeedMPH,Gust SpeedMPH,PrecipitationIn,Events,Conditions,WindDirDegrees,DateUTC
12:07 AM,48.2,48.2,100,30.28,1.8,Calm,Calm,-,N/A,,Clear,0,2011-11-08 05:07:00
12:10 AM,46.4,46.4,100,30.28,1.0,Calm,Calm,-,N/A,,Clear,0,2011-11-08 05:10:00
12:20 AM,46.4,46.4,100,30.28,2.0,Calm,Calm,-,N/A,,Clear,0,2011-11-08 05:20:00
12:28 AM,46.4,44.6,93,30.28,10.0,Calm,Calm,-,N/A,,Clear,0,2011-11-08 05:28:00
12:54 AM,48.0,46.9,96,30.27,10.0,Calm,Calm,-,N/A,,Clear,0,2011-11-08 05:54:00
1:54 AM,46.9,45.0,93,30.25,10.0,Calm,Calm,-,N/A,,Clear,0,2011-11-08 06:54:00
2:38 AM,44.6,44.6,100,30.25,1.8,Calm,Calm,-,N/A,,Clear,0,2011-11-08 07:38:00
2:45 AM,44.6,44.6,100,30.25,3.0,Calm,Calm,-,N/A,,Clear,0,2011-11-08 07:45:00
2:54 AM,45.0,44.1,97,30.25,9.0,Calm,Calm,-,N/A,,Clear,0,2011-11-08 07:54:00
5:54 AM,46.0,45.0,96,30.26,6.0,Calm,Calm,-,N/A,,Clear,0,2011-11-08 10:54:00
6:24 AM,44.6,44.6,100,30.26,1.8,Calm,Calm,-,N/A,,Clear,0,2011-11-08 11:24:00
6:31 AM,42.8,42.8,100,30.26,1.5,Calm,Calm,-,N/A,,Clear,0,2011-11-08 11:31:00
6:33 AM,42.8,42.8,100,30.26,2.0,Calm,Calm,-,N/A,,Clear,0,2011-11-08 11:33:00
6:40 AM,44.6,42.8,93,30.26,7.0,Calm,Calm,-,N/A,,Clear,0,2011-11-08 11:40:00
6:54 AM,46.0,45.0,96,30.27,3.0,Calm,Calm,-,N/A,,Clear,0,2011-11-08 11:54:00
7:54 AM,51.1,48.9,92,30.28,7.0,North,3.5,-,N/A,,Clear,10,2011-11-08 12:54:00
9:54 AM,62.1,51.1,67,30.27,10.0,East,3.5,-,N/A,,Clear,90,2011-11-08 14:54:00
10:54 AM,66.9,51.1,57,30.27,10.0,NE,5.8,-,N/A,,Clear,40,2011-11-08 15:54:00
11:54 AM,70.0,52.0,53,30.23,10.0,Variable,5.8,-,N/A,,Clear,0,2011-11-08 16:54:00
12:54 PM,71.1,51.1,49,30.20,10.0,East,4.6,-,N/A,,Clear,90,2011-11-08 17:54:00
1:54 PM,73.0,51.1,46,30.19,10.0,North,4.6,-,N/A,,Clear,10,2011-11-08 18:54:00
2:15 PM,73.4,51.8,47,30.18,2.0,NNE,5.8,-,N/A,,Haze,20,2011-11-08 19:15:00
2:26 PM,71.6,51.8,50,30.18,5.0,ENE,5.8,-,N/A,,Haze,70,2011-11-08 19:26:00
3:54 PM,72.0,51.1,48,30.17,9.0,NE,4.6,-,N/A,,Clear,50,2011-11-08 20:54:00
4:54 PM,69.1,51.1,53,30.17,10.0,NNE,5.8,-,N/A,,Clear,20,2011-11-08 21:54:00
5:54 PM,57.0,52.0,83,30.18,10.0,Calm,Calm,-,N/A,,Clear,0,2011-11-08 22:54:00
6:54 PM,55.0,52.0,89,30.18,10.0,Calm,Calm,-,N/A,,Clear,0,2011-11-08 23:54:00
7:54 PM,51.1,50.0,96,30.19,10.0,Calm,Calm,-,N/A,,Clear,0,2011-11-09 00:54:00
8:54 PM,50.0,48.0,93,30.19,5.0,Calm,Calm,-,N/A,,Clear,0,2011-11-09 01:54:00
9:54 PM,48.9,46.9,93,30.19,5.0,Calm,Calm,-,N/A,,Clear,0,2011-11-09 02:54:00
10:03 PM,46.4,46.4,100,30.20,2.5,Calm,Calm,-,N/A,,Clear,0,2011-11-09 03:03:00
10:10 PM,46.4,46.4,100,30.19,4.0,Calm,Calm,-,N/A,,Clear,0,2011-11-09 03:10:00
10:12 PM,46.4,46.4,100,30.19,1.8,Calm,Calm,-,N/A,,Clear,0,2011-11-09 03:12:00
10:14 PM,46.4,46.4,100,30.19,1.0,Calm,Calm,-,N/A,,Clear,0,2011-11-09 03:14:00
10:21 PM,48.2,46.4,93,30.19,0.8,Calm,Calm,-,N/A,,Clear,0,2011-11-09 03:21:00
10:23 PM,48.2,46.4,93,30.19,1.2,Calm,Calm,-,N/A,,Clear,0,2011-11-09 03:23:00
10:26 PM,46.4,46.4,100,30.19,3.0,Calm,Calm,-,N/A,,Clear,0,2011-11-09 03:26:00
10:54 PM,46.9,46.0,97,30.18,9.0,Calm,Calm,-,N/A,,Clear,0,2011-11-09 03:54:00
10:58 PM,46.4,46.4,100,30.18,1.8,Calm,Calm,-,N/A,,Clear,0,2011-11-09 03:58:00
11:00 PM,48.2,46.4,93,30.18,1.0,Calm,Calm,-,N/A,,Clear,0,2011-11-09 04:00:00
11:09 PM,46.4,46.4,100,30.18,2.0,Calm,Calm,-,N/A,,Clear,0,2011-11-09 04:09:00
11:16 PM,46.4,44.6,93,30.18,9.0,Calm,Calm,-,N/A,,Clear,0,2011-11-09 04:16:00
11:54 PM,46.9,45.0,93,30.17,10.0,Calm,Calm,-,N/A,,Clear,0,2011-11-09 04:54:00